AUA752W LATI-LOWW

Flight info

Callsign AUA752W
Flight time N/A
Altitude 34000
Route INLOT DCT RETRA DCT OBUTI OBUTI2W
Aircraft A320/M-SDE3FGHIRWY/LB1

Departure

Time 2026-04-29 07:31
Airport Tirana International Airport Mother Teresa (LATI)

Arrival

Time N/A
Airport Vienna International Airport (LOWW)
Time Latitude Longitude Altitude Speed Heading
2026-04-29 07:10 41.41910 19.71519 122 ft 0 kts 264°
2026-04-29 07:22 41.41913 19.71548 120 ft 4 kts 248°
2026-04-29 07:22 41.41927 19.71576 118 ft 4 kts 207°
2026-04-29 07:22 41.41944 19.71581 119 ft 1 kts 174°
2026-04-29 07:23 41.41947 19.71581 118 ft 0 kts 174°
2026-04-29 07:25 41.41922 19.71584 121 ft 7 kts 174°
2026-04-29 07:25 41.41920 19.71584 122 ft 7 kts 174°
2026-04-29 07:25 41.41875 19.71590 123 ft 11 kts 174°
2026-04-29 07:25 41.41845 19.71595 120 ft 14 kts 174°
2026-04-29 07:26 41.41751 19.71607 123 ft 13 kts 174°
2026-04-29 07:26 41.41688 19.71616 126 ft 17 kts 174°
2026-04-29 07:26 41.41639 19.71623 122 ft 19 kts 174°
2026-04-29 07:26 41.41616 19.71626 125 ft 20 kts 174°
2026-04-29 07:27 41.41509 19.71639 126 ft 17 kts 175°
2026-04-29 07:27 41.41383 19.71656 127 ft 15 kts 174°
2026-04-29 07:27 41.41257 19.71673 128 ft 21 kts 174°
2026-04-29 07:27 41.41060 19.71700 126 ft 21 kts 174°
2026-04-29 07:28 41.40908 19.71723 131 ft 23 kts 171°
2026-04-29 07:28 41.40801 19.71754 132 ft 24 kts 170°
2026-04-29 07:28 41.40629 19.71776 132 ft 26 kts 174°
2026-04-29 07:28 41.40474 19.71797 132 ft 21 kts 174°
2026-04-29 07:29 41.40342 19.71871 133 ft 18 kts 144°
2026-04-29 07:29 41.40249 19.71971 133 ft 17 kts 123°
2026-04-29 07:29 41.40244 19.72118 133 ft 16 kts 84°
2026-04-29 07:29 41.40292 19.72215 132 ft 12 kts 359°
2026-04-29 07:30 41.40309 19.72213 132 ft 0 kts 355°
2026-04-29 07:30 41.40522 19.72186 132 ft 72 kts 354°
2026-04-29 07:30 41.41254 19.72086 129 ft 136 kts 354°
2026-04-29 07:31 41.43286 19.71830 1227 ft 143 kts 355°
2026-04-29 07:31 41.43725 19.71785 1456 ft 146 kts 355°
2026-04-29 07:31 41.44359 19.71721 1663 ft 159 kts 355°
2026-04-29 07:31 41.45536 19.71605 1918 ft 189 kts 355°
2026-04-29 07:32 41.45805 19.71578 1976 ft 194 kts 355°
2026-04-29 07:32 41.46842 19.71470 2248 ft 209 kts 355°
2026-04-29 07:32 41.48316 19.71317 2815 ft 215 kts 354°
2026-04-29 07:32 41.49837 19.71154 3366 ft 227 kts 354°
2026-04-29 07:33 41.51503 19.70972 3799 ft 253 kts 354°
2026-04-29 07:33 41.52047 19.70913 3949 ft 260 kts 354°
2026-04-29 07:33 41.52564 19.70858 4161 ft 263 kts 354°
2026-04-29 07:33 41.54431 19.70657 4983 ft 273 kts 354°
2026-04-29 07:34 41.56303 19.70154 5920 ft 277 kts 341°
2026-04-29 07:34 41.58103 19.69215 6916 ft 279 kts 334°
2026-04-29 07:34 41.59867 19.68099 7887 ft 281 kts 332°
2026-04-29 07:34 41.61629 19.66934 8878 ft 283 kts 332°
2026-04-29 07:35 41.63404 19.65778 9863 ft 284 kts 333°
2026-04-29 07:35 41.65228 19.64630 10489 ft 300 kts 334°
2026-04-29 07:35 41.67200 19.63425 10804 ft 324 kts 334°
2026-04-29 07:35 41.69318 19.62159 11243 ft 340 kts 335°
2026-04-29 07:36 41.71502 19.60878 11998 ft 345 kts 335°
2026-04-29 07:36 41.73716 19.59587 12817 ft 349 kts 335°
2026-04-29 07:36 41.75951 19.58282 13623 ft 352 kts 335°
2026-04-29 07:36 41.76568 19.57922 13840 ft 353 kts 335°
2026-04-29 07:37 41.78830 19.56599 14545 ft 356 kts 335°
2026-04-29 07:37 41.79540 19.56184 14762 ft 357 kts 334°
2026-04-29 07:37 41.81165 19.55231 15254 ft 360 kts 334°
2026-04-29 07:37 41.83465 19.53882 15945 ft 363 kts 334°
2026-04-29 07:38 41.85789 19.52515 16640 ft 366 kts 334°
2026-04-29 07:38 41.88130 19.51134 17329 ft 369 kts 334°
2026-04-29 07:38 41.88336 19.51012 17390 ft 369 kts 334°
2026-04-29 07:38 41.90471 19.49748 18013 ft 372 kts 334°
2026-04-29 07:39 41.92852 19.48337 18654 ft 376 kts 334°
2026-04-29 07:39 41.95254 19.46916 19272 ft 379 kts 334°
2026-04-29 07:39 41.95848 19.46564 19426 ft 379 kts 334°
2026-04-29 07:39 41.96348 19.46268 19559 ft 380 kts 334°
2026-04-29 07:40 41.98782 19.44861 20183 ft 382 kts 335°
2026-04-29 07:40 42.00583 19.43914 20637 ft 384 kts 336°
2026-04-29 07:40 42.01977 19.43228 20978 ft 386 kts 338°
2026-04-29 07:40 42.04526 19.42039 21577 ft 389 kts 338°
2026-04-29 07:41 42.05549 19.41575 21807 ft 390 kts 338°
2026-04-29 07:41 42.08131 19.40413 22384 ft 393 kts 338°
2026-04-29 07:41 42.10731 19.39235 22937 ft 395 kts 338°
2026-04-29 07:41 42.13349 19.38029 23473 ft 398 kts 338°
2026-04-29 07:42 42.15917 19.36823 23929 ft 400 kts 337°
2026-04-29 07:42 42.18517 19.35582 24364 ft 402 kts 337°
2026-04-29 07:42 42.21160 19.34309 24774 ft 405 kts 337°
2026-04-29 07:42 42.23766 19.32868 25173 ft 404 kts 330°
2026-04-29 07:43 42.25305 19.31813 25416 ft 406 kts 330°
2026-04-29 07:43 42.26628 19.30908 25630 ft 407 kts 330°
2026-04-29 07:43 42.29159 19.29180 26026 ft 409 kts 330°
2026-04-29 07:43 42.31707 19.27442 26415 ft 411 kts 330°
2026-04-29 07:44 42.34265 19.25693 26798 ft 413 kts 330°
2026-04-29 07:44 42.36835 19.23934 27173 ft 415 kts 330°
2026-04-29 07:44 42.39421 19.22162 27550 ft 417 kts 330°
2026-04-29 07:44 42.42031 19.20375 27927 ft 419 kts 330°
2026-04-29 07:45 42.44641 19.18589 28282 ft 421 kts 330°
2026-04-29 07:45 42.47259 19.16795 28628 ft 423 kts 330°
2026-04-29 07:45 42.49888 19.14989 28945 ft 425 kts 330°
2026-04-29 07:45 42.52051 19.13498 29216 ft 426 kts 330°
2026-04-29 07:46 42.53739 19.12333 29411 ft 427 kts 330°
2026-04-29 07:46 42.56394 19.10502 29691 ft 429 kts 330°
2026-04-29 07:46 42.59065 19.08658 29965 ft 431 kts 330°
2026-04-29 07:46 42.61408 19.07040 30212 ft 433 kts 330°
2026-04-29 07:47 42.62936 19.05983 30352 ft 433 kts 330°
2026-04-29 07:47 42.65617 19.04135 30672 ft 432 kts 330°
2026-04-29 07:47 42.68293 19.02290 31023 ft 430 kts 330°
2026-04-29 07:47 42.70956 19.00449 31364 ft 429 kts 330°
2026-04-29 07:48 42.73613 18.98607 31677 ft 428 kts 329°
2026-04-29 07:48 42.76259 18.96767 31984 ft 427 kts 329°
2026-04-29 07:48 42.78897 18.94930 32312 ft 425 kts 329°
2026-04-29 07:48 42.81528 18.93096 32638 ft 424 kts 329°
2026-04-29 07:49 42.84119 18.91290 32977 ft 423 kts 329°
2026-04-29 07:49 42.86766 18.89446 33316 ft 421 kts 329°
2026-04-29 07:49 42.89334 18.87655 33637 ft 420 kts 329°
2026-04-29 07:49 42.91928 18.85843 33955 ft 418 kts 329°
2026-04-29 07:50 42.94517 18.84029 34123 ft 418 kts 329°
2026-04-29 07:50 42.97097 18.82220 34163 ft 416 kts 329°
2026-04-29 07:50 43.02243 18.78618 34155 ft 415 kts 329°
2026-04-29 07:51 43.07422 18.74992 34152 ft 415 kts 329°
2026-04-29 07:51 43.12524 18.71406 34154 ft 415 kts 329°
2026-04-29 07:52 43.17655 18.67792 34152 ft 415 kts 329°
2026-04-29 07:52 43.22786 18.64172 34148 ft 414 kts 329°
2026-04-29 07:53 43.27905 18.60554 34141 ft 414 kts 329°
2026-04-29 07:53 43.33020 18.56924 34143 ft 414 kts 329°
2026-04-29 07:54 43.38138 18.53287 34147 ft 414 kts 329°
2026-04-29 07:54 43.43256 18.49651 34139 ft 414 kts 329°
2026-04-29 07:55 43.48373 18.46002 34157 ft 414 kts 328°
2026-04-29 07:55 43.53486 18.42351 34152 ft 413 kts 328°
2026-04-29 07:56 43.58584 18.38704 34156 ft 412 kts 328°
2026-04-29 07:56 43.63678 18.35057 34170 ft 413 kts 328°
2026-04-29 07:57 43.68771 18.31413 34170 ft 412 kts 328°
2026-04-29 07:57 43.73854 18.27754 34184 ft 411 kts 328°
2026-04-29 07:58 43.78926 18.24087 34184 ft 411 kts 328°
2026-04-29 07:58 43.83985 18.20424 34178 ft 410 kts 328°
2026-04-29 07:59 43.89052 18.16755 34171 ft 410 kts 328°
2026-04-29 07:59 43.94114 18.13093 34191 ft 410 kts 328°
2026-04-29 08:00 43.99169 18.09416 34172 ft 410 kts 328°
2026-04-29 08:00 44.04212 18.05751 34157 ft 409 kts 328°
2026-04-29 08:01 44.09256 18.02083 34133 ft 409 kts 328°
2026-04-29 08:01 44.14271 17.98423 34133 ft 409 kts 328°
2026-04-29 08:02 44.19298 17.94731 34155 ft 408 kts 328°
2026-04-29 08:02 44.24329 17.91042 34149 ft 408 kts 328°
2026-04-29 08:03 44.29358 17.87347 34146 ft 408 kts 328°
2026-04-29 08:03 44.34385 17.83647 34142 ft 408 kts 328°
2026-04-29 08:04 44.39407 17.79938 34154 ft 408 kts 328°
2026-04-29 08:04 44.44389 17.76263 34153 ft 407 kts 328°
2026-04-29 08:05 44.49401 17.72552 34148 ft 407 kts 327°
2026-04-29 08:05 44.54391 17.68841 34150 ft 407 kts 327°
2026-04-29 08:06 44.59390 17.65119 34174 ft 407 kts 327°
2026-04-29 08:06 44.64380 17.61394 34157 ft 406 kts 327°
2026-04-29 08:07 44.69362 17.57670 34162 ft 405 kts 327°
2026-04-29 08:07 44.74341 17.53953 34168 ft 405 kts 327°
2026-04-29 08:08 44.79289 17.50253 34177 ft 405 kts 327°
2026-04-29 08:08 44.84255 17.46522 34209 ft 404 kts 327°
2026-04-29 08:09 44.89216 17.42783 34213 ft 404 kts 327°
2026-04-29 08:09 44.94169 17.39053 34205 ft 404 kts 327°
2026-04-29 08:10 44.99121 17.35321 34196 ft 403 kts 327°
2026-04-29 08:10 45.03233 17.32217 34140 ft 403 kts 327°
2026-04-29 08:11 45.08167 17.28476 34172 ft 402 kts 327°
2026-04-29 08:11 45.13088 17.24727 34173 ft 401 kts 326°
2026-04-29 08:12 45.17998 17.20985 34166 ft 401 kts 326°
2026-04-29 08:12 45.22910 17.17236 34148 ft 401 kts 327°
2026-04-29 08:13 45.27825 17.13478 34174 ft 401 kts 326°
2026-04-29 08:13 45.32732 17.09717 34182 ft 400 kts 326°
2026-04-29 08:14 45.37600 17.05982 34166 ft 400 kts 326°
2026-04-29 08:14 45.42490 17.02232 34166 ft 399 kts 326°
2026-04-29 08:15 45.47377 16.98472 34165 ft 398 kts 326°
2026-04-29 08:15 45.52248 16.94710 34159 ft 398 kts 326°
2026-04-29 08:16 45.57115 16.90948 34160 ft 398 kts 326°
2026-04-29 08:16 45.61977 16.87185 34157 ft 398 kts 326°
2026-04-29 08:17 45.66813 16.83429 34155 ft 398 kts 326°
2026-04-29 08:17 45.71681 16.79636 34157 ft 398 kts 326°
2026-04-29 08:18 45.76554 16.75841 34188 ft 397 kts 326°
2026-04-29 08:18 45.81403 16.72055 34181 ft 397 kts 326°
2026-04-29 08:19 45.86251 16.68255 34183 ft 397 kts 326°
2026-04-29 08:19 45.91097 16.64449 34177 ft 397 kts 326°
2026-04-29 08:20 45.95919 16.60659 34178 ft 397 kts 326°
2026-04-29 08:20 46.00778 16.56841 34201 ft 397 kts 326°
2026-04-29 08:21 46.05619 16.53022 34201 ft 397 kts 326°
2026-04-29 08:21 46.10457 16.49197 34191 ft 397 kts 326°
2026-04-29 08:22 46.15294 16.45367 34184 ft 397 kts 326°
2026-04-29 08:22 46.20135 16.41526 34222 ft 397 kts 326°
2026-04-29 08:23 46.24977 16.37675 34210 ft 397 kts 326°
2026-04-29 08:23 46.29814 16.33819 34214 ft 397 kts 326°
2026-04-29 08:24 46.34654 16.29956 34207 ft 397 kts 326°
2026-04-29 08:24 46.39824 16.26958 34205 ft 409 kts 341°
2026-04-29 08:25 46.45477 16.25595 34226 ft 412 kts 344°
2026-04-29 08:25 46.51132 16.24256 34225 ft 412 kts 344°
2026-04-29 08:26 46.56762 16.22925 34223 ft 412 kts 344°
2026-04-29 08:26 46.62413 16.21584 34220 ft 411 kts 343°
2026-04-29 08:27 46.68063 16.20239 34142 ft 410 kts 344°
2026-04-29 08:27 46.70868 16.19574 33864 ft 408 kts 343°
2026-04-29 08:27 46.73671 16.18906 33592 ft 408 kts 343°
2026-04-29 08:28 46.76478 16.18234 33322 ft 408 kts 343°
2026-04-29 08:28 46.79288 16.17563 33052 ft 409 kts 344°
2026-04-29 08:28 46.82093 16.16892 32615 ft 409 kts 343°
2026-04-29 08:28 46.84881 16.16220 31531 ft 413 kts 344°
2026-04-29 08:29 46.87724 16.15534 30542 ft 415 kts 343°
2026-04-29 08:29 46.90583 16.14843 29331 ft 418 kts 344°
2026-04-29 08:29 46.93467 16.14148 28486 ft 415 kts 344°
2026-04-29 08:29 46.96281 16.13479 27877 ft 406 kts 344°
2026-04-29 08:30 46.99054 16.12816 27129 ft 402 kts 344°
2026-04-29 08:30 47.04538 16.11490 25706 ft 396 kts 344°
2026-04-29 08:30 47.07213 16.10841 25016 ft 393 kts 344°
2026-04-29 08:31 47.09236 16.10351 24519 ft 391 kts 344°
2026-04-29 08:31 47.10390 16.10071 24219 ft 391 kts 344°
2026-04-29 08:31 47.11498 16.09802 23929 ft 390 kts 344°
2026-04-29 08:31 47.12744 16.09500 23575 ft 390 kts 344°
2026-04-29 08:32 47.15113 16.08925 22941 ft 387 kts 344°
2026-04-29 08:32 47.16176 16.08666 22693 ft 385 kts 345°
2026-04-29 08:32 47.16703 16.08539 22573 ft 384 kts 345°
2026-04-29 08:32 47.19327 16.07906 21955 ft 380 kts 345°
2026-04-29 08:33 47.21929 16.07278 21370 ft 377 kts 345°
2026-04-29 08:33 47.24508 16.06659 20798 ft 374 kts 346°
2026-04-29 08:33 47.27063 16.06041 20262 ft 370 kts 346°
2026-04-29 08:33 47.27186 16.06011 20230 ft 370 kts 346°
2026-04-29 08:34 47.29708 16.05393 19707 ft 366 kts 346°
2026-04-29 08:34 47.32212 16.04774 19201 ft 363 kts 346°
2026-04-29 08:34 47.32685 16.04657 19100 ft 363 kts 346°
2026-04-29 08:35 47.34721 16.04218 18687 ft 363 kts 351°
2026-04-29 08:35 47.37252 16.04251 18126 ft 365 kts
2026-04-29 08:35 47.39785 16.05004 17427 ft 377 kts 13°
2026-04-29 08:36 47.42242 16.06218 16766 ft 377 kts 15°
2026-04-29 08:36 47.44726 16.07461 16101 ft 376 kts 15°
2026-04-29 08:36 47.47205 16.08699 15426 ft 376 kts 15°
2026-04-29 08:36 47.49680 16.09932 14762 ft 375 kts 15°
2026-04-29 08:37 47.52150 16.11157 14113 ft 374 kts 15°
2026-04-29 08:37 47.54609 16.12379 13384 ft 372 kts 15°
2026-04-29 08:37 47.57052 16.13596 12729 ft 368 kts 16°
2026-04-29 08:37 47.59464 16.14795 12085 ft 364 kts 16°
2026-04-29 08:38 47.61849 16.15982 11437 ft 360 kts 16°
2026-04-29 08:38 47.64204 16.17160 10924 ft 353 kts 16°
2026-04-29 08:38 47.66467 16.18297 10798 ft 335 kts 16°
2026-04-29 08:38 47.68623 16.19382 10678 ft 319 kts 16°
2026-04-29 08:39 47.70681 16.20415 10551 ft 305 kts 16°
2026-04-29 08:39 47.72648 16.21399 10428 ft 292 kts 16°
2026-04-29 08:39 47.74547 16.22375 10193 ft 286 kts 20°
2026-04-29 08:39 47.76251 16.23850 9979 ft 284 kts 36°
2026-04-29 08:40 47.77640 16.25964 9525 ft 292 kts 52°
2026-04-29 08:40 47.78662 16.28585 9164 ft 290 kts 58°
2026-04-29 08:40 47.79637 16.31197 8757 ft 288 kts 58°
2026-04-29 08:40 47.80604 16.33749 8364 ft 286 kts 58°